Overview Statistics Trail Chart Weather Telemetry Raw packets
 

This is the latest recevied weather packets stored in our database for station/object OE6ACM-10. If no packets are shown the sender has not sent any weather packets the latest 10 day(s).

<< 8 9 10 11 12 13 14 >>
Time Temp. Humidity Pressure Rain* Wind** Luminosity Snow
1788629989 23.33° C 100% 932.1 hPa - - - -
1788629689 23.33° C 100% 931.9 hPa - - - -
1788629389 23.89° C 100% 932 hPa - - - -
1788629089 23.89° C 100% 931.9 hPa - - - -
1788628789 23.89° C 100% 931.8 hPa - - - -
1788628489 24.44° C 100% 932 hPa - - - -
1788628189 24.44° C 100% 931.9 hPa - - - -
1788627889 25° C 100% 932 hPa - - - -
1788627589 25° C 100% 931.8 hPa - - - -
1788627289 25.56° C 100% 931.7 hPa - - - -
1788626989 26.11° C 100% 931.7 hPa - - - -
1788626689 26.11° C 100% 931.7 hPa - - - -
1788626389 26.67° C 100% 931.7 hPa - - - -
1788626089 27.22° C 100% 931.7 hPa - - - -
1788625789 27.22° C 100% 931.6 hPa - - - -
1788625489 27.78° C 100% 931.6 hPa - - - -
1788625189 29.44° C 100% 931.5 hPa - - - -
1788624889 30.56° C 100% 931.4 hPa - - - -
1788624589 31.11° C 100% 931.3 hPa - - - -
1788624289 32.22° C 100% 931.3 hPa - - - -
1788623989 32.22° C 100% 931.3 hPa - - - -
1788623689 32.22° C 100% 931.3 hPa - - - -
1788623389 32.22° C 100% 931.3 hPa - - - -
1788623089 32.22° C 100% 931.3 hPa - - - -
1788622789 31.67° C 100% 931.2 hPa - - - -

* Rain since midnight (hover to see other rain measurements)
** Current wind speed in m/s (hover to see current wind gust speed)